Regional Weather Roundup
Issued by NWS

Home | Current Version | Previous Version | Graphics & Text | Print | Product List | Glossary On
Versions: 1 2 3 4 5 6 7 8 9 10 11 12 13 14 15 16 17 18 19 20 21 22 23 24 25 26 27 28
000
ASUS45 KTFX 281710
RWRMT
MONTANA REGIONAL WEATHER ROUNDUP
NATIONAL WEATHER SERVICE GREAT FALLS MT
1100 AM MDT FRI APR 28 2017

NOTE: "FAIR" INDICATES FEW OR NO CLOUDS BELOW 12000 FEET WITH NO
SIGNIFICANT WEATHER AND/OR OBSTRUCTIONS TO VISIBILITY.

MTZ001>007-043-281800-
WEST OF THE DIVIDE

CITY           SKY/WX    TMP DP  RH WIND       PRES   REMARKS
KALISPELL      CLOUDY    44  36  73 SE8       30.08R
MISSOULA       CLOUDY    44  33  65 NW3       30.10R
BUTTE          CLOUDY    39  19  44 N12       30.02R WCI  32
MULLAN PASS    FOG       31  30  96 CALM      30.05R VSB<1/4
ANACONDA         N/A     41  23  48 NE7       30.03S
DEER LODGE       N/A     41  25  52 N8        30.06S
EUREKA           N/A     46  37  71 CALM      30.08R
HAMILTON         N/A     43  27  52 CALM      30.08S
LIBBY            N/A     45  36  70 CALM      30.08R
PLAINS           N/A     49  34  56 CALM      30.09R
$$

MTZ008-052>055-281800-
SOUTHWEST MONTANA

CITY           SKY/WX    TMP DP  RH WIND       PRES   REMARKS
BOZEMAN        CLOUDY    41  29  62 W13       30.00R
DILLON         MOSUNNY   40  20  44 N8G16     29.99R
W YELLOWSTONE  CLOUDY    34  21  60 NE14G24   29.90R WCI  24
THREE FORKS      N/A     43  32  65 CALM      30.00R
TWIN BRIDGES     N/A     44  19  37 N10       29.98R
$$

MTZ009-010-012-014-046-048-049-054-281800-
EAST SLOPES AND CENTRAL MONTANA

CITY           SKY/WX    TMP DP  RH WIND       PRES   REMARKS
CUT BANK       LGT SNOW  35  32  88 N15       30.07R FOG     WCI  25
GREAT FALLS    CLOUDY    44  34  67 CALM      30.03R
MALMSTROM AFB  CLOUDY    42  36  77 SW3       30.04R
HELENA         CLOUDY    47  26  44 CALM      30.02R
AUGUSTA        PTSUNNY   42  31  65 N5        30.03R
BOWMANS CRNR   PTSUNNY   43  30  60 NE3       30.01R
CHOTEAU          N/A     43  37  81 N10       30.06R
FAIRFIELD      PTSUNNY   44  33  66 NW10      30.03R
POWER          PTSUNNY   45  35  69 NW12      30.03R
RAYNESFORD     PTSUNNY   42  34  73 NW7       30.02R
ULM            PTSUNNY   42  35  74 NW5       30.04R
$$

MTZ011-013-016-021-045-047-050-051-281800-
NORTH CENTRAL MONTANA

CITY           SKY/WX    TMP DP  RH WIND       PRES   REMARKS
HAVRE          CLOUDY    47  38  71 CALM      30.03R
LEWISTOWN      LGT RAIN  39  34  82 N7        30.01R
CHINOOK          N/A     46  37  71 W6        30.04R
DENTON           N/A     44  36  71 MISG      29.99R
FORT BENTON      N/A     46  37  71 N3        30.05R
GEYSER         PTSUNNY   43  31  62 NE6       30.02R
GRASS RANGE    LGT SNOW  35  34  96 CALM      30.00R
JUDITH GAP     PTSUNNY   40  32  74 N17G23    29.98R
STANFORD       PTSUNNY   41  33  73 N7        30.01R
WINIFRED       PTSUNNY   42  34  72 NE7       30.02R
$$

MTZ017>020-022>027-061-062-281800-
NORTHEAST MONTANA

CITY           SKY/WX    TMP DP  RH WIND       PRES   REMARKS
GLASGOW        SUNNY     50  21  32 E5        30.02R
JORDAN           N/A     50  28  42 VRB5      29.99R
SIDNEY         SUNNY     50  26  39 SE5       30.04R
WOLF POINT     SUNNY     52  24  33 N5        30.03R
PLENTYWOOD       N/A     48  21  34 S5        30.03S
POPLAR           N/A     52  19  28 SW5       30.03S
SCOBEY           N/A     49  19  30 SE3       30.01R
$$

MTZ028>42-056>058-281800-
SOUTHCENTRAL AND SOUTHEAST MONTANA

CITY           SKY/WX    TMP DP  RH WIND       PRES   REMARKS
BAKER          MOSUNNY   45  26  47 SE6       30.00R
BILLINGS       CLOUDY    43  37  79 N9        29.98R
LIVINGSTON     LGT SNOW  34  33  96 CALM      29.98R FOG
MILES CITY     CLOUDY    49  28  44 S7        29.99R
BIG TIMBER     PTSUNNY   37  32  81 N17G24    30.01R WCI  28
EKALAKA          N/A     44  25  47 E6        29.95R
LAUREL           N/A     42  33  70 N8        29.96S
ROUNDUP          N/A     45  33  62 N5        29.91R
$$

REGIONAL REPORTS...DAKOTAS

CITY           SKY/WX    TMP DP  RH WIND       PRES   REMARKS
WILLISTON      SUNNY     51  25  36 SE6       30.05R
MINOT          SUNNY     50  14  23 CALM      30.04R
DICKINSON      SUNNY     45  23  42 E8        30.00R
BEACH            N/A     46  21  36 E8        30.04R
TIOGA            N/A     46  18  31 NE3       30.05R
WATFORD CITY     N/A     48  21  34 E8        30.04R
BISMARCK       SUNNY     50  18  28 NE12G17   30.04R
GRAND FORKS    SUNNY     47  26  44 N18       29.99R
FARGO          SUNNY     45  28  51 N13       30.00R
BUFFALO SD       N/A     45  27  49 E12G21    29.91R
RAPID CITY     CLOUDY    42  29  59 E9        29.94R
$$

REGIONAL REPORTS...WYOMING/IDAHO/WASHINGTON

CITY           SKY/WX    TMP DP  RH WIND       PRES   REMARKS
GILLETTE       LGT SNOW  33  32  96 N15       29.91R WCI  23
SHERIDAN       CLOUDY    37  33  85 NW5       29.96R
BUFFALO WY     LGT SNOW  34  30  85 N13G24    29.93R VSB 3/4 WCI  25
CODY           MIX PCPN  35  33  92 N22       29.90R WCI  23
YELLOWSTONE LA   N/A     32  21  64 VRB6      29.87R WCI  26
IDAHO FALLS    CLOUDY    41  28  60 N14       29.93R
SALMON         CLOUDY    43  21  42 CALM      30.03F
BOISE          SUNNY     47  32  56 NW20      30.08R
SPOKANE        MOSUNNY   46  34  62 S3        30.14R
$$

REGIONAL REPORTS...ALBERTA

CITY           SKY/WX    TMP DP  RH WIND       PRES   REMARKS
EDMONTON       SUNNY     41  27  56 S6        30.08S
CALGARY        PTSUNNY   41  27  56 NW6       30.06R
LETHBRIDGE     CLOUDY    37  34  87 W3        30.10R
MEDICINE HAT   PTSUNNY   45  30  57 W10       30.07R
MILK RIVER       N/A     36  34  93 N9          N/A  WCI  29
ONEFOUR          N/A     39  34  81 N12         N/A  WCI  32
$$

REGIONAL REPORTS...SASKATCHEWAN

CITY           SKY/WX    TMP DP  RH WIND       PRES   REMARKS
SWIFT CURRENT  CLOUDY    39  36  87 NW14      30.01R WCI  31
REGINA         MOSUNNY   52  19  28 VRB2      30.02R
SASKATOON      PTSUNNY   48  27  43 VRB6      30.02R
CYPRESS HILLS    N/A     30  27  86 N8          N/A  WCI  23
VAL MARIE        N/A     50  28  43 NW3         N/A
ASSINIBOIA       N/A     43  30  61 N5          N/A
$$




USA.gov is the U.S. government's official web portal to all federal, state and local government web resources and services.